Weather in Mokrousovo

Russia / Republic of Bashkortostan     54°34′00″N   55°56′08″E
temp.,
°C
wind,
m/s
gust,
m/s
humid.,
%
clouds,
%
prec.,
mm/h
press.,
hPa
HPBL,
m
4 march, thu
thu423:00−5wsw4995100 0.3 1001220
02:00−7w499488 0.0 1001224
05:00−7w599493 0.3 1003395
08:00−12w479588 0.2 1003132
11:00−9sw589161 0.2 1004332
14:00−6sw61094100 0.9 1003627
17:00−5ssw71388100 1.1 1001584
20:00−4sw91694100 0.6 1000910
5 march, fri
fri523:00−3sw111891100 1.6 997887
02:000wsw9159296 0.3 9961053
05:00−2w6138898 0.9 999641
08:00−3wsw71285100 0.3 1000535
11:00−3w4696100 0.9 1001488
14:00−3nw2396100 1.6 1001343
17:00−4nnw4696100 3.6 1002442
20:00−6nw3591100 0.3 1005105
6 march, sat
sat623:00−13nw338885 0.3 100923
02:00−16w22870 0.0 101120
05:00−17sw22850 0.0 101320
08:00−17ssw23850 0.0 101420
11:00−12ssw34820 0.0 1013184
14:00−8sw46840 0.0 1013371
17:00−7sw478833 0.0 1012466
20:00−10sw3394100 0.1 101246
7 march, sun
sun723:00−12wsw2295100 0.1 101221
02:00−12wsw1296100 0.1 101121
05:00−14nw3497100 0.2 101069
08:00−16nw4697100 0.1 1010137
11:00−16nw5695100 0.2 1011256
14:00−14nw469299 0.0 1011341
17:00−14wnw359193 0.1 1011356
20:00−19sw239518 0.0 101320
8 march, mon
mon823:00−20s34949 0.0 101449
02:00−18s5109467 0.0 1012242
05:00−16s7139284 0.1 1010325
08:00−14s81692100 0.3 1007477
11:00−10ssw101787100 0.5 1004816
14:00−4sw81391100 0.9 10041112
17:00−5wsw488069 1.3 1006377
20:00−9s458069 0.0 100792